• In Romania
  • List of Countries
  • For 7 days
  • Water Temperature
  • Satellite Maps
  • Weather Map
  • Weather Widgets
  • user-avatar
    Login

    Hourly Weather Aleksandrinskiy

    Today, 20 September, Thursday

    Time Temperature Precipitation Wind Pressure Humidity
    00:00 +15°C° 0 mm 4 mps 740 mmHg 88%
    01:00 +14°C° 0 mm 4 mps 739 mmHg 90%
    02:00 +14°C° 0 mm 4 mps 739 mmHg 92%
    03:00 +14°C° 0 mm 2 mps 739 mmHg 95%
    04:00 +13°C° 0 mm 3 mps 739 mmHg 95%
    05:00 +13°C° 0 mm 3 mps 739 mmHg 95%
    06:00 +13°C° 0 mm 4 mps 739 mmHg 95%
    07:00 +14°C° 0 mm 4 mps 739 mmHg 91%
    08:00 +15°C° 0 mm 4 mps 739 mmHg 87%
    09:00 +17°C° 0 mm 5 mps 739 mmHg 84%
    10:00 +19°C° 0 mm 5 mps 739 mmHg 78%
    11:00 +21°C° 0 mm 5 mps 739 mmHg 73%
    12:00 +23°C° 0 mm 6 mps 739 mmHg 68%
    13:00 +23°C° 0 mm 6 mps 739 mmHg 66%
    14:00 +24°C° 0 mm 6 mps 739 mmHg 63%
    15:00 +24°C° 0 mm 6 mps 739 mmHg 61%
    16:00 +23°C° 0 mm 5 mps 739 mmHg 65%
    17:00 +22°C° 0 mm 4 mps 740 mmHg 70%
    18:00 +21°C° 0 mm 3 mps 740 mmHg 74%
    19:00 +19°C° 0 mm 3 mps 740 mmHg 77%
    20:00 +18°C° 0 mm 3 mps 740 mmHg 81%
    21:00 +17°C° 0 mm 3 mps 740 mmHg 84%
    22:00 +16°C° 0 mm 3 mps 740 mmHg 86%
    23:00 +16°C° 0 mm 2 mps 741 mmHg 87%

    Tomorrow, 21 September, Friday

    Time Temperature Precipitation Wind Pressure Humidity
    00:00 +15°C° 0 mm 2 mps 741 mmHg 88%
    01:00 +15°C° 0 mm 2 mps 741 mmHg 89%
    02:00 +15°C° 0 mm 2 mps 741 mmHg 90%
    03:00 +14°C° 0 mm 2 mps 742 mmHg 91%
    04:00 +14°C° 0 mm 2 mps 742 mmHg 91%
    05:00 +14°C° 0 mm 1 mps 742 mmHg 91%
    06:00 +13°C° 0 mm 1 mps 742 mmHg 92%
    07:00 +15°C° 0 mm 1 mps 742 mmHg 86%
    08:00 +16°C° 0 mm 1 mps 743 mmHg 81%
    09:00 +19°C° 0 mm 1 mps 743 mmHg 76%
    10:00 +20°C° 0 mm 1 mps 743 mmHg 70%
    11:00 +20°C° 0 mm 2 mps 743 mmHg 64%
    12:00 +23°C° 0 mm 2 mps 743 mmHg 58%
    13:00 +23°C° 0 mm 2 mps 743 mmHg 55%
    14:00 +24°C° 0 mm 1 mps 743 mmHg 53%
    15:00 +25°C° 0 mm 1 mps 743 mmHg 50%
    16:00 +23°C° 0 mm 1 mps 743 mmHg 54%
    17:00 +22°C° 0 mm 1 mps 743 mmHg 59%
    18:00 +21°C° 0 mm 1 mps 743 mmHg 63%
    19:00 +20°C° 0 mm 1 mps 743 mmHg 66%
    20:00 +19°C° 0 mm 1 mps 743 mmHg 68%
    21:00 +18°C° 0 mm 1 mps 743 mmHg 71%
    22:00 +18°C° 0 mm 1 mps 743 mmHg 73%
    23:00 +17°C° 0 mm 2 mps 743 mmHg 75%

    Day after tomorrow, 22 September, Saturday

    Time Temperature Precipitation Wind Pressure Humidity
    00:00 +16°C° 0 mm 2 mps 743 mmHg 77%
    01:00 +16°C° 0 mm 2 mps 743 mmHg 78%
    02:00 +15°C° 0 mm 2 mps 743 mmHg 80%
    03:00 +15°C° 0 mm 2 mps 743 mmHg 82%
    04:00 +15°C° 0 mm 2 mps 743 mmHg 83%
    05:00 +14°C° 0 mm 3 mps 743 mmHg 84%
    06:00 +13°C° 0 mm 3 mps 742 mmHg 85%
    07:00 +16°C° 0 mm 3 mps 742 mmHg 80%
    08:00 +17°C° 0 mm 3 mps 742 mmHg 75%
    09:00 +18°C° 0 mm 4 mps 742 mmHg 70%
    10:00 +20°C° 0 mm 4 mps 742 mmHg 65%
    11:00 +21°C° 0 mm 4 mps 742 mmHg 61%
    12:00 +23°C° 0 mm 5 mps 742 mmHg 56%
    13:00 +25°C° 0 mm 5 mps 741 mmHg 55%
    14:00 +25°C° 0 mm 5 mps 741 mmHg 54%
    15:00 +24°C° 0 mm 6 mps 740 mmHg 52%
    16:00 +23°C° 0 mm 5 mps 740 mmHg 57%
    17:00 +22°C° 0 mm 4 mps 740 mmHg 62%
    18:00 +21°C° 0 mm 4 mps 739 mmHg 67%
    19:00 +20°C° 0 mm 4 mps 739 mmHg 67%
    20:00 +20°C° 0 mm 4 mps 739 mmHg 66%
    21:00 +19°C° 0 mm 5 mps 738 mmHg 66%
    22:00 +19°C° 0 mm 5 mps 738 mmHg 64%
    23:00 +19°C° 0 mm 5 mps 737 mmHg 63%

    23 September, Sunday

    Time Temperature Precipitation Wind Pressure Humidity
    00:00 +19°C° 0 mm 5 mps 737 mmHg 61%
    01:00 +17°C° 0 mm 5 mps 737 mmHg 61%
    02:00 +17°C° 0 mm 5 mps 736 mmHg 61%
    03:00 +17°C° 0 mm 5 mps 736 mmHg 60%
    04:00 +16°C° 0.2 mm 5 mps 735 mmHg 63%
    05:00 +16°C° 0.2 mm 5 mps 735 mmHg 66%
    06:00 +15°C° 0.2 mm 5 mps 734 mmHg 69%
    07:00 +15°C° 0.6 mm 5 mps 734 mmHg 71%
    08:00 +15°C° 0.6 mm 4 mps 734 mmHg 72%
    09:00 +17°C° 0.6 mm 4 mps 734 mmHg 74%
    10:00 +15°C° 0.8 mm 5 mps 734 mmHg 76%
    11:00 +14°C° 0.8 mm 5 mps 734 mmHg 79%
    12:00 +13°C° 0.8 mm 6 mps 733 mmHg 81%
    13:00 +11°C° 1.6 mm 6 mps 734 mmHg 83%
    14:00 +9°C° 1.6 mm 7 mps 734 mmHg 85%
    15:00 +6°C° 1.6 mm 7 mps 734 mmHg 87%
    16:00 +8°C° 0.2 mm 6 mps 735 mmHg 85%
    17:00 +8°C° 0.2 mm 5 mps 735 mmHg 84%
    18:00 +10°C° 0.2 mm 4 mps 736 mmHg 83%
    19:00 +10°C° 0 mm 4 mps 736 mmHg 84%
    20:00 +8°C° 0 mm 4 mps 736 mmHg 86%
    21:00 +8°C° 0 mm 4 mps 736 mmHg 87%
    22:00 +7°C° 0 mm 4 mps 737 mmHg 87%
    23:00 +7°C° 0 mm 4 mps 737 mmHg 87%

    24 September, Monday

    Time Temperature Precipitation Wind Pressure Humidity
    00:00 +7°C° 0 mm 4 mps 737 mmHg 87%
    01:00 +8°C° 0 mm 3 mps 737 mmHg 88%
    02:00 +7°C° 0 mm 3 mps 737 mmHg 90%
    03:00 +7°C° 0 mm 3 mps 737 mmHg 91%
    04:00 +7°C° 0 mm 3 mps 737 mmHg 91%
    05:00 +7°C° 0 mm 3 mps 737 mmHg 92%
    06:00 +5°C° 0 mm 3 mps 737 mmHg 92%
    07:00 +8°C° 0 mm 3 mps 736 mmHg 87%
    08:00 +8°C° 0 mm 4 mps 736 mmHg 81%
    09:00 +9°C° 0 mm 5 mps 736 mmHg 76%
    10:00 +10°C° 0 mm 5 mps 736 mmHg 73%
    11:00 +11°C° 0 mm 6 mps 735 mmHg 69%
    12:00 +11°C° 0 mm 7 mps 735 mmHg 66%
    13:00 +11°C° 0.8 mm 7 mps 734 mmHg 70%
    14:00 +10°C° 0.8 mm 7 mps 733 mmHg 75%
    15:00 +9°C° 0.8 mm 7 mps 732 mmHg 80%
    16:00 +9°C° 1.2 mm 8 mps 731 mmHg 81%
    17:00 +8°C° 1.2 mm 9 mps 730 mmHg 82%
    18:00 +8°C° 1.2 mm 10 mps 729 mmHg 83%
    19:00 +9°C° 0.6 mm 10 mps 728 mmHg 83%
    20:00 +9°C° 0.6 mm 11 mps 727 mmHg 83%
    21:00 +9°C° 0.6 mm 11 mps 727 mmHg 83%
    22:00 +9°C° 0.4 mm 10 mps 726 mmHg 83%
    23:00 +8°C° 0.4 mm 10 mps 725 mmHg 82%

    25 September, Tuesday

    Time Temperature Precipitation Wind Pressure Humidity
    00:00 +8°C° 0.4 mm 9 mps 724 mmHg 82%
    01:00 +7°C° 0 mm 10 mps 724 mmHg 81%
    02:00 +7°C° 0 mm 10 mps 723 mmHg 80%
    03:00 +6°C° 0 mm 11 mps 723 mmHg 79%
    04:00 +6°C° 0.1 mm 11 mps 723 mmHg 79%
    05:00 +6°C° 0.1 mm 11 mps 724 mmHg 78%
    06:00 +5°C° 0.1 mm 12 mps 724 mmHg 78%
    07:00 +5°C° 0.1 mm 12 mps 725 mmHg 77%
    08:00 +4°C° 0.1 mm 12 mps 726 mmHg 76%
    09:00 +4°C° 0.1 mm 12 mps 726 mmHg 75%
    10:00 +4°C° 0.1 mm 11 mps 727 mmHg 74%
    11:00 +4°C° 0.1 mm 11 mps 728 mmHg 73%
    12:00 +4°C° 0.1 mm 11 mps 729 mmHg 72%
    13:00 +4°C° 0.1 mm 11 mps 730 mmHg 71%
    14:00 +5°C° 0.1 mm 10 mps 731 mmHg 71%
    15:00 +5°C° 0.1 mm 10 mps 732 mmHg 71%
    16:00 +5°C° 0 mm 10 mps 733 mmHg 69%
    17:00 +5°C° 0 mm 9 mps 733 mmHg 68%
    18:00 +5°C° 0 mm 8 mps 734 mmHg 67%
    19:00 +4°C° 0 mm 8 mps 735 mmHg 68%
    20:00 +4°C° 0 mm 7 mps 735 mmHg 68%
    21:00 +4°C° 0 mm 7 mps 736 mmHg 69%
    22:00 +4°C° 0 mm 7 mps 737 mmHg 71%
    23:00 +3°C° 0 mm 6 mps 737 mmHg 73%
    Show more